Time,TemperatureF,DewpointF,PressureIn,WindDirection,WindDirectionDegrees,WindSpeedMPH,WindSpeedGustMPH,Humidity,HourlyPrecipIn,Conditions,Clouds,dailyrainin,SoftwareType,DateUTC
2013-04-29 00:00:00,56.5,33.7,30.23,NNW,335,0.0,6.0,42,0.00,,,0.00,VWS V14.01,2013-04-29 04:00:00,
2013-04-29 00:01:00,56.5,33.1,30.23,North,11,0.0,4.0,41,0.00,,,0.00,VWS V14.01,2013-04-29 04:01:00,
2013-04-29 00:06:00,56.4,34.2,30.23,North,360,0.0,4.0,43,0.00,,,0.00,VWS V14.01,2013-04-29 04:06:00,
2013-04-29 00:11:00,56.2,35.2,30.23,North,360,0.0,4.0,45,0.00,,,0.00,VWS V14.01,2013-04-29 04:11:00,
2013-04-29 00:15:00,56.1,34.5,30.23,North,360,0.0,4.0,44,0.00,,,0.00,VWS V14.01,2013-04-29 04:15:00,
2013-04-29 00:16:00,56.1,35.1,30.23,North,360,0.0,0.0,45,0.00,,,0.00,VWS V14.01,2013-04-29 04:16:00,
2013-04-29 00:21:00,55.8,34.8,30.23,WNW,294,0.0,5.0,45,0.00,,,0.00,VWS V14.01,2013-04-29 04:21:00,
2013-04-29 00:26:00,55.6,36.2,30.23,WNW,292,0.0,5.0,48,0.00,,,0.00,VWS V14.01,2013-04-29 04:26:00,
2013-04-29 00:30:00,55.6,36.8,30.22,WNW,295,0.0,5.0,49,0.00,,,0.00,VWS V14.01,2013-04-29 04:30:00,
2013-04-29 00:31:00,55.6,37.3,30.22,WNW,295,0.0,0.0,50,0.00,,,0.00,VWS V14.01,2013-04-29 04:31:00,
2013-04-29 00:36:00,55.5,38.7,30.22,NW,324,0.0,0.0,53,0.00,,,0.00,VWS V14.01,2013-04-29 04:36:00,
2013-04-29 00:41:00,55.2,40.2,30.22,NW,325,0.0,0.0,57,0.00,,,0.00,VWS V14.01,2013-04-29 04:41:00,
2013-04-29 00:45:00,55.0,41.0,30.21,NNW,329,0.0,0.0,59,0.00,,,0.00,VWS V14.01,2013-04-29 04:45:00,
2013-04-29 00:46:00,54.9,40.9,30.21,NNW,329,0.0,0.0,59,0.00,,,0.00,VWS V14.01,2013-04-29 04:46:00,
2013-04-29 00:51:00,54.6,39.7,30.21,NNW,329,0.0,0.0,57,0.00,,,0.00,VWS V14.01,2013-04-29 04:51:00,
2013-04-29 00:56:00,54.4,40.0,30.21,NNW,329,0.0,0.0,58,0.00,,,0.00,VWS V14.01,2013-04-29 04:56:00,
2013-04-29 01:00:00,54.4,40.8,30.22,NNW,329,0.0,0.0,60,0.00,,,0.00,VWS V14.01,2013-04-29 05:00:00,
2013-04-29 01:01:00,54.3,40.7,30.22,NNW,329,0.0,0.0,60,0.00,,,0.00,VWS V14.01,2013-04-29 05:01:00,
2013-04-29 01:06:00,54.1,40.1,30.22,NNW,329,0.0,0.0,59,0.00,,,0.00,VWS V14.01,2013-04-29 05:06:00,
2013-04-29 01:11:00,54.1,41.0,30.22,NNW,329,0.0,0.0,61,0.00,,,0.00,VWS V14.01,2013-04-29 05:11:00,
2013-04-29 01:15:00,54.0,40.9,30.22,NNW,329,0.0,0.0,61,0.00,,,0.00,VWS V14.01,2013-04-29 05:15:00,
2013-04-29 01:16:00,54.0,40.9,30.22,NNW,329,0.0,0.0,61,0.00,,,0.00,VWS V14.01,2013-04-29 05:16:00,
2013-04-29 01:21:00,54.0,40.9,30.22,NNW,329,0.0,0.0,61,0.00,,,0.00,VWS V14.01,2013-04-29 05:21:00,
2013-04-29 01:26:00,53.8,40.7,30.22,NNW,329,0.0,1.0,61,0.00,,,0.00,VWS V14.01,2013-04-29 05:26:00,
2013-04-29 01:30:00,53.8,40.7,30.21,NNW,329,0.0,3.0,61,0.00,,,0.00,VWS V14.01,2013-04-29 05:30:00,
2013-04-29 01:31:00,53.8,40.7,30.21,NNW,329,0.0,0.0,61,0.00,,,0.00,VWS V14.01,2013-04-29 05:31:00,
2013-04-29 01:36:00,53.8,41.1,30.21,NNW,329,0.0,0.0,62,0.00,,,0.00,VWS V14.01,2013-04-29 05:36:00,
2013-04-29 01:41:00,53.8,41.1,30.21,NNW,329,0.0,4.0,62,0.00,,,0.00,VWS V14.01,2013-04-29 05:41:00,
2013-04-29 01:45:00,53.8,41.5,30.21,NNW,329,0.0,4.0,63,0.00,,,0.00,VWS V14.01,2013-04-29 05:45:00,
2013-04-29 01:46:00,53.8,41.9,30.21,NNW,329,0.0,0.0,64,0.00,,,0.00,VWS V14.01,2013-04-29 05:46:00,
2013-04-29 01:51:00,53.8,41.9,30.21,NNW,329,0.0,0.0,64,0.00,,,0.00,VWS V14.01,2013-04-29 05:51:00,
2013-04-29 01:56:00,53.8,42.3,30.21,NNW,329,0.0,2.0,65,0.00,,,0.00,VWS V14.01,2013-04-29 05:56:00,
2013-04-29 02:00:00,53.7,42.6,30.20,NNW,329,0.0,2.0,66,0.00,,,0.00,VWS V14.01,2013-04-29 06:00:00,
2013-04-29 02:01:00,53.7,42.2,30.20,NNW,329,0.0,0.0,65,0.00,,,0.00,VWS V14.01,2013-04-29 06:01:00,
2013-04-29 02:06:00,53.5,42.4,30.20,NNW,329,0.0,0.0,66,0.00,,,0.00,VWS V14.01,2013-04-29 06:06:00,
2013-04-29 02:11:00,53.5,42.8,30.20,NNW,329,0.0,0.0,67,0.00,,,0.00,VWS V14.01,2013-04-29 06:11:00,
2013-04-29 02:15:00,53.5,42.4,30.20,NNW,329,0.0,0.0,66,0.00,,,0.00,VWS V14.01,2013-04-29 06:15:00,
2013-04-29 02:16:00,53.4,42.7,30.20,NNW,329,0.0,0.0,67,0.00,,,0.00,VWS V14.01,2013-04-29 06:16:00,
2013-04-29 02:21:00,53.4,43.5,30.20,NNW,330,0.0,1.0,69,0.00,,,0.00,VWS V14.01,2013-04-29 06:21:00,
2013-04-29 02:25:00,53.1,42.5,30.20,NNW,336,0.0,2.0,67,0.00,,,0.00,VWS V14.01,2013-04-29 06:25:00,
2013-04-29 02:30:00,53.0,42.3,30.19,NNW,336,0.0,0.0,67,0.00,,,0.00,VWS V14.01,2013-04-29 06:30:00,
2013-04-29 02:35:00,53.0,42.7,30.19,NNW,336,0.0,1.0,68,0.00,,,0.00,VWS V14.01,2013-04-29 06:35:00,
2013-04-29 02:40:00,52.8,41.8,30.19,NNW,336,0.0,2.0,66,0.00,,,0.00,VWS V14.01,2013-04-29 06:40:00,
2013-04-29 02:45:00,52.8,42.2,30.19,North,350,1.0,1.0,67,0.00,,,0.00,VWS V14.01,2013-04-29 06:45:00,
2013-04-29 02:50:00,52.8,41.8,30.19,North,9,0.0,4.0,66,0.00,,,0.00,VWS V14.01,2013-04-29 06:50:00,
2013-04-29 02:55:00,52.8,41.8,30.19,North,9,0.0,4.0,66,0.00,,,0.00,VWS V14.01,2013-04-29 06:55:00,
2013-04-29 03:00:00,52.8,41.8,30.19,North,9,0.0,0.0,66,0.00,,,0.00,VWS V14.01,2013-04-29 07:00:00,
2013-04-29 03:05:00,52.8,42.5,30.19,North,9,4.0,5.0,68,0.00,,,0.00,VWS V14.01,2013-04-29 07:05:00,
2013-04-29 03:10:00,52.7,42.5,30.19,NNE,26,5.0,8.0,68,0.00,,,0.00,VWS V14.01,2013-04-29 07:10:00,
2013-04-29 03:15:00,52.5,42.3,30.18,NE,44,0.0,2.0,68,0.00,,,0.00,VWS V14.01,2013-04-29 07:15:00,
2013-04-29 03:20:00,52.5,43.0,30.18,NW,315,0.0,5.0,70,0.00,,,0.00,VWS V14.01,2013-04-29 07:20:00,
2013-04-29 03:25:00,52.4,42.9,30.18,NE,49,3.0,7.0,70,0.00,,,0.00,VWS V14.01,2013-04-29 07:25:00,
2013-04-29 03:30:00,52.4,42.2,30.18,NE,47,5.0,5.0,68,0.00,,,0.00,VWS V14.01,2013-04-29 07:30:00,
2013-04-29 03:35:00,52.4,42.9,30.18,NE,47,0.0,5.0,70,0.00,,,0.00,VWS V14.01,2013-04-29 07:35:00,
2013-04-29 03:40:00,52.4,42.9,30.18,NE,47,0.0,5.0,70,0.00,,,0.00,VWS V14.01,2013-04-29 07:40:00,
2013-04-29 03:45:00,52.5,43.0,30.18,NE,47,2.0,4.0,70,0.00,,,0.00,VWS V14.01,2013-04-29 07:45:00,
2013-04-29 03:50:00,52.5,42.6,30.18,NE,47,1.0,6.0,69,0.00,,,0.00,VWS V14.01,2013-04-29 07:50:00,
2013-04-29 03:55:00,52.5,43.0,30.18,NE,47,0.0,6.0,70,0.00,,,0.00,VWS V14.01,2013-04-29 07:55:00,
2013-04-29 04:00:00,52.7,42.8,30.18,NE,47,0.0,0.0,69,0.00,,,0.00,VWS V14.01,2013-04-29 08:00:00,
2013-04-29 04:05:00,52.7,42.8,30.18,NE,54,2.0,7.0,69,0.00,,,0.00,VWS V14.01,2013-04-29 08:05:00,
2013-04-29 04:11:00,52.7,43.2,30.18,NE,54,0.0,7.0,70,0.00,,,0.00,VWS V14.01,2013-04-29 08:11:00,
2013-04-29 04:15:00,52.8,43.3,30.18,NE,49,0.0,7.0,70,0.00,,,0.00,VWS V14.01,2013-04-29 08:15:00,
2013-04-29 04:16:00,52.8,43.3,30.18,NE,39,6.0,6.0,70,0.00,,,0.00,VWS V14.01,2013-04-29 08:16:00,
2013-04-29 04:21:00,52.8,43.3,30.18,NE,41,5.0,8.0,70,0.00,,,0.00,VWS V14.01,2013-04-29 08:21:00,
2013-04-29 04:26:00,53.0,43.5,30.18,NE,49,6.0,8.0,70,0.00,,,0.00,VWS V14.01,2013-04-29 08:26:00,
2013-04-29 04:30:00,53.0,43.5,30.18,NE,49,0.0,8.0,70,0.00,,,0.00,VWS V14.01,2013-04-29 08:30:00,
2013-04-29 04:31:00,53.0,43.9,30.18,NE,44,5.0,8.0,71,0.00,,,0.00,VWS V14.01,2013-04-29 08:31:00,
2013-04-29 04:36:00,53.0,43.5,30.18,NE,49,5.0,8.0,70,0.00,,,0.00,VWS V14.01,2013-04-29 08:36:00,
2013-04-29 04:41:00,53.0,43.5,30.18,NE,49,7.0,8.0,70,0.00,,,0.00,VWS V14.01,2013-04-29 08:41:00,
2013-04-29 04:45:00,53.0,43.5,30.18,NE,48,2.0,8.0,70,0.00,,,0.00,VWS V14.01,2013-04-29 08:45:00,
2013-04-29 04:46:00,53.0,43.5,30.18,NE,48,0.0,5.0,70,0.00,,,0.00,VWS V14.01,2013-04-29 08:46:00,
2013-04-29 04:51:00,53.0,43.5,30.18,NE,49,5.0,6.0,70,0.00,,,0.00,VWS V14.01,2013-04-29 08:51:00,
2013-04-29 04:56:00,52.8,43.7,30.18,NE,45,5.0,7.0,71,0.00,,,0.00,VWS V14.01,2013-04-29 08:56:00,
2013-04-29 05:00:00,52.8,43.7,30.18,NE,49,4.0,8.0,71,0.00,,,0.00,VWS V14.01,2013-04-29 09:00:00,
2013-04-29 05:01:00,52.8,44.0,30.18,ENE,65,9.0,9.0,72,0.00,,,0.00,VWS V14.01,2013-04-29 09:01:00,
2013-04-29 05:06:00,52.8,44.0,30.18,ENE,65,9.0,9.0,72,0.00,,,0.00,VWS V14.01,2013-04-29 09:06:00,
2013-04-29 05:11:00,52.8,43.7,30.18,NE,55,0.0,2.0,71,0.00,,,0.00,VWS V14.01,2013-04-29 09:11:00,
2013-04-29 05:15:00,52.8,43.7,30.17,NE,55,4.0,5.0,71,0.00,,,0.00,VWS V14.01,2013-04-29 09:15:00,
2013-04-29 05:16:00,52.8,43.7,30.17,ENE,57,4.0,6.0,71,0.00,,,0.00,VWS V14.01,2013-04-29 09:16:00,
2013-04-29 05:21:00,52.8,43.7,30.17,ENE,57,0.0,7.0,71,0.00,,,0.00,VWS V14.01,2013-04-29 09:21:00,
2013-04-29 05:26:00,52.8,44.0,30.17,ENE,57,0.0,7.0,72,0.00,,,0.00,VWS V14.01,2013-04-29 09:26:00,
2013-04-29 05:30:00,52.8,44.0,30.17,NE,53,5.0,7.0,72,0.00,,,0.00,VWS V14.01,2013-04-29 09:30:00,
2013-04-29 05:31:00,52.8,44.4,30.17,NE,54,4.0,5.0,73,0.00,,,0.00,VWS V14.01,2013-04-29 09:31:00,
2013-04-29 05:36:00,52.7,43.9,30.17,NE,42,0.0,6.0,72,0.00,,,0.00,VWS V14.01,2013-04-29 09:36:00,
2013-04-29 05:41:00,52.7,43.9,30.17,NE,42,0.0,6.0,72,0.00,,,0.00,VWS V14.01,2013-04-29 09:41:00,
2013-04-29 05:45:00,52.7,44.3,30.17,NE,42,0.0,6.0,73,0.00,,,0.00,VWS V14.01,2013-04-29 09:45:00,
2013-04-29 05:46:00,52.7,44.3,30.17,NE,51,5.0,5.0,73,0.00,,,0.00,VWS V14.01,2013-04-29 09:46:00,
2013-04-29 05:51:00,52.7,44.3,30.17,NE,51,3.0,6.0,73,0.00,,,0.00,VWS V14.01,2013-04-29 09:51:00,
2013-04-29 05:56:00,52.7,44.3,30.17,NE,51,0.0,6.0,73,0.00,,,0.00,VWS V14.01,2013-04-29 09:56:00,
2013-04-29 06:00:00,52.7,44.3,30.18,NE,50,5.0,6.0,73,0.00,,,0.00,VWS V14.01,2013-04-29 10:00:00,
2013-04-29 06:01:00,52.7,44.3,30.18,NE,50,2.0,5.0,73,0.00,,,0.00,VWS V14.01,2013-04-29 10:01:00,
2013-04-29 06:06:00,52.5,44.1,30.18,NE,42,2.0,5.0,73,0.00,,,0.00,VWS V14.01,2013-04-29 10:06:00,
2013-04-29 06:11:00,52.5,44.1,30.18,ESE,105,0.0,7.0,73,0.00,,,0.00,VWS V14.01,2013-04-29 10:11:00,
2013-04-29 06:15:00,52.5,44.1,30.18,NE,34,4.0,7.0,73,0.00,,,0.00,VWS V14.01,2013-04-29 10:15:00,
2013-04-29 06:16:00,52.7,44.7,30.18,NE,34,0.0,4.0,74,0.00,,,0.00,VWS V14.01,2013-04-29 10:16:00,
2013-04-29 06:21:00,52.7,44.7,30.18,NE,34,5.0,6.0,74,0.00,,,0.00,VWS V14.01,2013-04-29 10:21:00,
2013-04-29 06:26:00,52.7,45.0,30.18,NE,55,0.0,7.0,75,0.00,,,0.00,VWS V14.01,2013-04-29 10:26:00,
2013-04-29 06:30:00,52.7,45.0,30.18,ENE,61,0.0,7.0,75,0.00,,,0.00,VWS V14.01,2013-04-29 10:30:00,
2013-04-29 06:31:00,52.7,45.0,30.18,ENE,61,0.0,0.0,75,0.00,,,0.00,VWS V14.01,2013-04-29 10:31:00,
2013-04-29 06:36:00,52.7,45.0,30.18,NE,34,5.0,6.0,75,0.00,,,0.00,VWS V14.01,2013-04-29 10:36:00,
2013-04-29 06:41:00,52.7,45.4,30.18,ENE,61,5.0,8.0,76,0.00,,,0.00,VWS V14.01,2013-04-29 10:41:00,
2013-04-29 06:45:00,52.7,45.4,30.18,NE,44,7.0,8.0,76,0.00,,,0.00,VWS V14.01,2013-04-29 10:45:00,
2013-04-29 06:46:00,52.7,45.4,30.18,NE,36,8.0,8.0,76,0.00,,,0.00,VWS V14.01,2013-04-29 10:46:00,
2013-04-29 06:51:00,52.7,45.7,30.18,NE,49,5.0,8.0,77,0.00,,,0.00,VWS V14.01,2013-04-29 10:51:00,
2013-04-29 06:56:00,52.5,45.5,30.18,NNE,28,6.0,10.0,77,0.00,,,0.00,VWS V14.01,2013-04-29 10:56:00,
2013-04-29 07:00:00,52.5,45.5,30.18,NNE,22,8.0,10.0,77,0.00,,,0.00,VWS V14.01,2013-04-29 11:00:00,
2013-04-29 07:01:00,52.5,45.5,30.18,NE,54,10.0,10.0,77,0.00,,,0.00,VWS V14.01,2013-04-29 11:01:00,
2013-04-29 07:06:00,52.5,45.5,30.18,ENE,67,5.0,10.0,77,0.00,,,0.00,VWS V14.01,2013-04-29 11:06:00,
2013-04-29 07:11:00,52.5,45.5,30.18,NE,40,0.0,10.0,77,0.00,,,0.00,VWS V14.01,2013-04-29 11:11:00,
2013-04-29 07:15:00,52.5,45.8,30.19,ENE,61,5.0,10.0,78,0.00,,,0.00,VWS V14.01,2013-04-29 11:15:00,
2013-04-29 07:16:00,52.5,45.8,30.19,NE,36,6.0,7.0,78,0.00,,,0.00,VWS V14.01,2013-04-29 11:16:00,
2013-04-29 07:21:00,52.5,45.8,30.19,NNE,32,0.0,7.0,78,0.00,,,0.00,VWS V14.01,2013-04-29 11:21:00,
2013-04-29 07:26:00,52.5,45.8,30.19,North,360,2.0,7.0,78,0.00,,,0.00,VWS V14.01,2013-04-29 11:26:00,
2013-04-29 07:30:00,52.5,45.8,30.19,North,5,0.0,7.0,78,0.00,,,0.00,VWS V14.01,2013-04-29 11:30:00,
2013-04-29 07:31:00,52.5,46.2,30.19,North,5,0.0,0.0,79,0.00,,,0.00,VWS V14.01,2013-04-29 11:31:00,
2013-04-29 07:36:00,52.5,46.2,30.19,NNE,25,2.0,7.0,79,0.00,,,0.00,VWS V14.01,2013-04-29 11:36:00,
2013-04-29 07:41:00,52.5,46.2,30.19,ENE,63,4.0,10.0,79,0.00,,,0.00,VWS V14.01,2013-04-29 11:41:00,
2013-04-29 07:45:00,52.5,46.5,30.19,NE,45,1.0,10.0,80,0.00,,,0.00,VWS V14.01,2013-04-29 11:45:00,
2013-04-29 07:46:00,52.5,46.5,30.19,NE,50,11.0,11.0,80,0.00,,,0.00,VWS V14.01,2013-04-29 11:46:00,
2013-04-29 07:51:00,52.5,46.5,30.19,NE,46,1.0,11.0,80,0.00,,,0.00,VWS V14.01,2013-04-29 11:51:00,
2013-04-29 07:56:00,52.5,46.5,30.19,NE,40,8.0,11.0,80,0.00,,,0.00,VWS V14.01,2013-04-29 11:56:00,
2013-04-29 08:00:00,52.5,46.5,30.19,NE,38,0.0,12.0,80,0.00,,,0.00,VWS V14.01,2013-04-29 12:00:00,
2013-04-29 08:01:00,52.5,46.5,30.19,NE,53,4.0,7.0,80,0.00,,,0.00,VWS V14.01,2013-04-29 12:01:00,
2013-04-29 08:06:00,52.5,46.8,30.19,ENE,61,7.0,8.0,81,0.00,,,0.00,VWS V14.01,2013-04-29 12:06:00,
2013-04-29 08:11:00,52.5,46.5,30.19,NNE,28,4.0,10.0,80,0.00,,,0.00,VWS V14.01,2013-04-29 12:11:00,
2013-04-29 08:15:00,52.5,46.5,30.19,NE,47,5.0,10.0,80,0.00,,,0.00,VWS V14.01,2013-04-29 12:15:00,
2013-04-29 08:16:00,52.5,46.8,30.19,ENE,70,5.0,7.0,81,0.00,,,0.00,VWS V14.01,2013-04-29 12:16:00,
2013-04-29 08:21:00,52.5,46.8,30.19,NE,41,1.0,7.0,81,0.00,,,0.00,VWS V14.01,2013-04-29 12:21:00,
2013-04-29 08:26:00,52.7,47.0,30.19,East,89,12.0,12.0,81,0.00,,,0.00,VWS V14.01,2013-04-29 12:26:00,
2013-04-29 08:30:00,52.7,46.7,30.19,ENE,66,0.0,12.0,80,0.00,,,0.00,VWS V14.01,2013-04-29 12:30:00,
2013-04-29 08:31:00,52.7,46.7,30.19,NE,50,2.0,9.0,80,0.00,,,0.00,VWS V14.01,2013-04-29 12:31:00,
2013-04-29 08:36:00,52.7,46.7,30.19,ENE,60,4.0,11.0,80,0.00,,,0.00,VWS V14.01,2013-04-29 12:36:00,
2013-04-29 08:41:00,52.7,46.7,30.19,NNE,29,9.0,11.0,80,0.00,,,0.00,VWS V14.01,2013-04-29 12:41:00,
2013-04-29 08:45:00,52.7,46.7,30.19,ENE,71,4.0,11.0,80,0.00,,,0.00,VWS V14.01,2013-04-29 12:45:00,
2013-04-29 08:46:00,52.7,46.7,30.19,North,11,7.0,7.0,80,0.00,,,0.00,VWS V14.01,2013-04-29 12:46:00,
2013-04-29 08:51:00,52.7,46.7,30.19,East,84,8.0,8.0,80,0.00,,,0.00,VWS V14.01,2013-04-29 12:51:00,
2013-04-29 08:56:00,52.7,46.7,30.19,NE,51,8.0,8.0,80,0.00,,,0.00,VWS V14.01,2013-04-29 12:56:00,
2013-04-29 09:00:00,52.7,46.7,30.19,NE,40,0.0,9.0,80,0.00,,,0.00,VWS V14.01,2013-04-29 13:00:00,
2013-04-29 09:01:00,52.7,46.7,30.19,NE,47,6.0,9.0,80,0.00,,,0.00,VWS V14.01,2013-04-29 13:01:00,
2013-04-29 09:06:00,52.8,46.8,30.19,ENE,66,5.0,10.0,80,0.00,,,0.00,VWS V14.01,2013-04-29 13:06:00,
2013-04-29 09:11:00,52.8,46.8,30.19,NE,51,4.0,11.0,80,0.00,,,0.00,VWS V14.01,2013-04-29 13:11:00,
2013-04-29 09:15:00,52.8,46.8,30.19,ENE,59,2.0,11.0,80,0.00,,,0.00,VWS V14.01,2013-04-29 13:15:00,
2013-04-29 09:16:00,52.8,46.8,30.19,ESE,108,5.0,11.0,80,0.00,,,0.00,VWS V14.01,2013-04-29 13:16:00,
2013-04-29 09:21:00,52.8,46.5,30.19,NE,45,7.0,13.0,79,0.00,,,0.00,VWS V14.01,2013-04-29 13:21:00,
2013-04-29 09:26:00,52.8,46.8,30.19,NE,53,8.0,13.0,80,0.00,,,0.00,VWS V14.01,2013-04-29 13:26:00,
2013-04-29 09:30:00,52.8,46.8,30.19,NE,34,10.0,13.0,80,0.00,,,0.00,VWS V14.01,2013-04-29 13:30:00,
2013-04-29 09:31:00,52.8,46.8,30.19,NE,49,5.0,12.0,80,0.00,,,0.00,VWS V14.01,2013-04-29 13:31:00,
2013-04-29 09:36:00,52.7,46.7,30.19,ENE,63,8.0,14.0,80,0.00,,,0.00,VWS V14.01,2013-04-29 13:36:00,
2013-04-29 09:41:00,52.7,46.7,30.19,NE,39,8.0,14.0,80,0.01,,,0.01,VWS V14.01,2013-04-29 13:41:00,
2013-04-29 09:45:00,52.7,46.7,30.19,NE,52,7.0,14.0,80,0.01,,,0.01,VWS V14.01,2013-04-29 13:45:00,
2013-04-29 09:46:00,52.5,46.5,30.19,NNE,29,0.0,10.0,80,0.01,,,0.01,VWS V14.01,2013-04-29 13:46:00,
2013-04-29 09:51:00,52.5,46.8,30.19,ENE,58,6.0,10.0,81,0.01,,,0.01,VWS V14.01,2013-04-29 13:51:00,
2013-04-29 09:56:00,52.5,46.8,30.19,ESE,114,0.0,14.0,81,0.01,,,0.01,VWS V14.01,2013-04-29 13:56:00,
2013-04-29 10:00:00,52.5,46.8,30.19,East,83,9.0,14.0,81,0.01,,,0.01,VWS V14.01,2013-04-29 14:00:00,
2013-04-29 10:01:00,52.7,47.4,30.19,NE,55,11.0,12.0,82,0.01,,,0.01,VWS V14.01,2013-04-29 14:01:00,
2013-04-29 10:06:00,52.5,46.8,30.19,NE,47,7.0,13.0,81,0.01,,,0.01,VWS V14.01,2013-04-29 14:06:00,
2013-04-29 10:11:00,52.8,47.1,30.19,ENE,59,7.0,13.0,81,0.01,,,0.01,VWS V14.01,2013-04-29 14:11:00,
2013-04-29 10:15:00,52.8,46.8,30.18,SSE,156,3.0,16.0,80,0.01,,,0.01,VWS V14.01,2013-04-29 14:15:00,
2013-04-29 10:16:00,52.8,46.5,30.18,ESE,107,7.0,13.0,79,0.01,,,0.01,VWS V14.01,2013-04-29 14:16:00,
2013-04-29 10:21:00,53.0,46.3,30.18,East,80,10.0,16.0,78,0.01,,,0.01,VWS V14.01,2013-04-29 14:21:00,
2013-04-29 10:26:00,53.1,46.4,30.18,NE,46,10.0,16.0,78,0.01,,,0.01,VWS V14.01,2013-04-29 14:26:00,
2013-04-29 10:30:00,53.1,46.8,30.18,ENE,67,7.0,16.0,79,0.01,,,0.01,VWS V14.01,2013-04-29 14:30:00,
2013-04-29 10:31:00,53.1,46.4,30.18,ESE,103,5.0,12.0,78,0.01,,,0.01,VWS V14.01,2013-04-29 14:31:00,
2013-04-29 10:36:00,53.1,46.4,30.18,NE,38,13.0,15.0,78,0.01,,,0.01,VWS V14.01,2013-04-29 14:36:00,
2013-04-29 10:41:00,53.0,46.0,30.18,ENE,59,8.0,16.0,77,0.01,,,0.01,VWS V14.01,2013-04-29 14:41:00,
2013-04-29 10:45:00,52.8,45.8,30.19,NE,36,10.0,16.0,77,0.01,,,0.01,VWS V14.01,2013-04-29 14:45:00,
2013-04-29 10:46:00,52.8,45.8,30.19,NE,36,2.0,15.0,77,0.00,,,0.01,VWS V14.01,2013-04-29 14:46:00,
2013-04-29 10:51:00,52.7,45.7,30.19,East,88,9.0,15.0,77,0.00,,,0.01,VWS V14.01,2013-04-29 14:51:00,
2013-04-29 10:56:00,52.7,45.7,30.19,ENE,64,7.0,15.0,77,0.00,,,0.01,VWS V14.01,2013-04-29 14:56:00,
2013-04-29 11:00:00,52.7,45.7,30.19,ENE,58,3.0,15.0,77,0.00,,,0.01,VWS V14.01,2013-04-29 15:00:00,
2013-04-29 11:01:00,52.7,46.0,30.19,ENE,73,3.0,12.0,78,0.00,,,0.01,VWS V14.01,2013-04-29 15:01:00,
2013-04-29 11:06:00,52.7,46.0,30.19,East,100,7.0,12.0,78,0.00,,,0.01,VWS V14.01,2013-04-29 15:06:00,
2013-04-29 11:11:00,52.7,45.7,30.19,East,82,9.0,12.0,77,0.00,,,0.01,VWS V14.01,2013-04-29 15:11:00,
2013-04-29 11:15:00,52.5,45.5,30.19,ENE,76,7.0,14.0,77,0.00,,,0.01,VWS V14.01,2013-04-29 15:15:00,
2013-04-29 11:16:00,52.5,45.5,30.19,ENE,70,12.0,12.0,77,0.00,,,0.01,VWS V14.01,2013-04-29 15:16:00,
2013-04-29 11:21:00,52.5,45.5,30.19,East,82,6.0,12.0,77,0.00,,,0.01,VWS V14.01,2013-04-29 15:21:00,
2013-04-29 11:26:00,52.4,45.4,30.19,SE,134,4.0,12.0,77,0.00,,,0.01,VWS V14.01,2013-04-29 15:26:00,
2013-04-29 11:30:00,52.4,45.4,30.18,NE,56,6.0,14.0,77,0.00,,,0.01,VWS V14.01,2013-04-29 15:30:00,
2013-04-29 11:31:00,52.4,45.4,30.18,ENE,64,7.0,12.0,77,0.00,,,0.01,VWS V14.01,2013-04-29 15:31:00,
2013-04-29 11:36:00,52.4,45.8,30.18,NE,49,11.0,16.0,78,0.00,,,0.01,VWS V14.01,2013-04-29 15:36:00,
2013-04-29 11:41:00,52.2,45.6,30.18,NE,55,8.0,16.0,78,0.00,,,0.01,VWS V14.01,2013-04-29 15:41:00,
2013-04-29 11:45:00,52.2,45.6,30.18,SE,136,5.0,16.0,78,0.00,,,0.01,VWS V14.01,2013-04-29 15:45:00,
2013-04-29 11:46:00,52.2,45.6,30.18,NE,37,8.0,15.0,78,0.00,,,0.01,VWS V14.01,2013-04-29 15:46:00,
2013-04-29 11:51:00,52.2,45.6,30.18,East,92,6.0,15.0,78,0.00,,,0.01,VWS V14.01,2013-04-29 15:51:00,
2013-04-29 11:56:00,52.2,45.6,30.18,ENE,61,10.0,16.0,78,0.00,,,0.01,VWS V14.01,2013-04-29 15:56:00,
2013-04-29 12:00:00,52.1,45.8,30.18,SE,130,8.0,16.0,79,0.00,,,0.01,VWS V14.01,2013-04-29 16:00:00,
2013-04-29 12:01:00,52.1,45.8,30.18,ENE,65,10.0,13.0,79,0.00,,,0.01,VWS V14.01,2013-04-29 16:01:00,
2013-04-29 12:06:00,52.1,46.1,30.18,ESE,115,5.0,14.0,80,0.00,,,0.01,VWS V14.01,2013-04-29 16:06:00,
2013-04-29 12:11:00,51.9,45.9,30.18,East,94,7.0,14.0,80,0.00,,,0.01,VWS V14.01,2013-04-29 16:11:00,
2013-04-29 12:15:00,51.8,45.8,30.17,NE,53,6.0,14.0,80,0.00,,,0.01,VWS V14.01,2013-04-29 16:15:00,
2013-04-29 12:16:00,51.9,46.3,30.17,East,85,7.0,14.0,81,0.00,,,0.01,VWS V14.01,2013-04-29 16:16:00,
2013-04-29 12:21:00,51.8,46.2,30.17,NE,44,0.0,16.0,81,0.00,,,0.01,VWS V14.01,2013-04-29 16:21:00,
2013-04-29 12:26:00,51.9,46.6,30.17,ESE,107,8.0,16.0,82,0.00,,,0.01,VWS V14.01,2013-04-29 16:26:00,
2013-04-29 12:30:00,51.8,46.5,30.17,East,86,2.0,16.0,82,0.00,,,0.01,VWS V14.01,2013-04-29 16:30:00,
2013-04-29 12:31:00,51.9,46.6,30.17,NE,53,6.0,7.0,82,0.00,,,0.01,VWS V14.01,2013-04-29 16:31:00,
2013-04-29 12:36:00,51.8,46.5,30.17,East,80,12.0,12.0,82,0.00,,,0.01,VWS V14.01,2013-04-29 16:36:00,
2013-04-29 12:41:00,51.8,46.5,30.17,East,80,12.0,12.0,82,0.00,,,0.01,VWS V14.01,2013-04-29 16:41:00,
2013-04-29 12:45:00,52.1,46.8,30.17,ENE,72,8.0,16.0,82,0.00,,,0.01,VWS V14.01,2013-04-29 16:45:00,
2013-04-29 12:46:00,52.1,46.5,30.17,NE,49,6.0,12.0,81,0.00,,,0.01,VWS V14.01,2013-04-29 16:46:00,
2013-04-29 12:51:00,52.1,46.5,30.17,East,97,3.0,12.0,81,0.00,,,0.01,VWS V14.01,2013-04-29 16:51:00,
2013-04-29 12:56:00,52.1,46.8,30.17,ESE,105,0.0,13.0,82,0.00,,,0.01,VWS V14.01,2013-04-29 16:56:00,
2013-04-29 13:00:00,52.2,46.9,30.17,NE,47,9.0,13.0,82,0.00,,,0.01,VWS V14.01,2013-04-29 17:00:00,
2013-04-29 13:01:00,52.2,46.9,30.17,ENE,74,5.0,12.0,82,0.00,,,0.01,VWS V14.01,2013-04-29 17:01:00,
2013-04-29 13:06:00,52.1,46.8,30.17,NNE,19,0.0,18.0,82,0.00,,,0.01,VWS V14.01,2013-04-29 17:06:00,
2013-04-29 13:11:00,52.1,46.8,30.17,NE,41,9.0,18.0,82,0.00,,,0.01,VWS V14.01,2013-04-29 17:11:00,
2013-04-29 13:15:00,52.1,47.1,30.17,ENE,78,9.0,18.0,83,0.00,,,0.01,VWS V14.01,2013-04-29 17:15:00,
2013-04-29 13:16:00,52.1,47.1,30.17,ENE,58,8.0,9.0,83,0.00,,,0.01,VWS V14.01,2013-04-29 17:16:00,
2013-04-29 13:21:00,52.1,47.4,30.17,East,92,3.0,11.0,84,0.00,,,0.01,VWS V14.01,2013-04-29 17:21:00,
2013-04-29 13:26:00,52.1,47.4,30.17,NE,43,7.0,15.0,84,0.00,,,0.01,VWS V14.01,2013-04-29 17:26:00,
2013-04-29 13:30:00,52.1,47.4,30.17,NNE,28,9.0,15.0,84,0.00,,,0.01,VWS V14.01,2013-04-29 17:30:00,
2013-04-29 13:31:00,52.1,47.4,30.17,ENE,67,13.0,14.0,84,0.00,,,0.01,VWS V14.01,2013-04-29 17:31:00,
2013-04-29 13:36:00,52.1,47.4,30.17,NE,44,10.0,15.0,84,0.00,,,0.01,VWS V14.01,2013-04-29 17:36:00,
2013-04-29 13:41:00,52.1,47.4,30.17,East,80,10.0,15.0,84,0.00,,,0.01,VWS V14.01,2013-04-29 17:41:00,
2013-04-29 13:45:00,51.9,47.2,30.17,ENE,58,6.0,16.0,84,0.00,,,0.01,VWS V14.01,2013-04-29 17:45:00,
2013-04-29 13:46:00,52.1,47.4,30.17,ENE,74,4.0,14.0,84,0.00,,,0.01,VWS V14.01,2013-04-29 17:46:00,
2013-04-29 13:51:00,52.1,47.1,30.17,ENE,59,10.0,19.0,83,0.00,,,0.01,VWS V14.01,2013-04-29 17:51:00,
2013-04-29 13:56:00,52.1,47.1,30.17,ENE,69,5.0,19.0,83,0.00,,,0.01,VWS V14.01,2013-04-29 17:56:00,
2013-04-29 14:00:00,52.2,47.2,30.17,NE,41,5.0,19.0,83,0.00,,,0.01,VWS V14.01,2013-04-29 18:00:00,
2013-04-29 14:01:00,52.2,47.5,30.17,NE,45,6.0,12.0,84,0.00,,,0.01,VWS V14.01,2013-04-29 18:01:00,
2013-04-29 14:06:00,52.2,47.2,30.17,NE,45,8.0,13.0,83,0.00,,,0.01,VWS V14.01,2013-04-29 18:06:00,
2013-04-29 14:11:00,52.2,47.2,30.17,ESE,107,4.0,13.0,83,0.00,,,0.01,VWS V14.01,2013-04-29 18:11:00,
2013-04-29 14:15:00,52.4,47.4,30.17,NE,43,4.0,13.0,83,0.01,,,0.02,VWS V14.01,2013-04-29 18:15:00,
2013-04-29 14:16:00,52.4,47.4,30.17,ENE,65,1.0,10.0,83,0.01,,,0.02,VWS V14.01,2013-04-29 18:16:00,
2013-04-29 14:21:00,52.4,47.4,30.17,NE,55,7.0,18.0,83,0.01,,,0.02,VWS V14.01,2013-04-29 18:21:00,
2013-04-29 14:26:00,52.4,47.4,30.17,NE,42,6.0,18.0,83,0.01,,,0.02,VWS V14.01,2013-04-29 18:26:00,
2013-04-29 14:30:00,52.5,47.8,30.16,ENE,70,9.0,18.0,84,0.01,,,0.02,VWS V14.01,2013-04-29 18:30:00,
2013-04-29 14:31:00,52.5,47.5,30.16,ENE,65,12.0,12.0,83,0.01,,,0.02,VWS V14.01,2013-04-29 18:31:00,
2013-04-29 14:36:00,52.5,47.8,30.16,ESE,107,7.0,12.0,84,0.01,,,0.02,VWS V14.01,2013-04-29 18:36:00,
2013-04-29 14:41:00,52.5,47.8,30.16,East,96,5.0,12.0,84,0.01,,,0.02,VWS V14.01,2013-04-29 18:41:00,
2013-04-29 14:45:00,52.5,47.8,30.16,ENE,77,11.0,16.0,84,0.01,,,0.02,VWS V14.01,2013-04-29 18:45:00,
2013-04-29 14:46:00,52.5,47.8,30.16,NE,51,6.0,11.0,84,0.01,,,0.02,VWS V14.01,2013-04-29 18:46:00,
2013-04-29 14:51:00,52.4,47.7,30.16,East,96,12.0,15.0,84,0.01,,,0.02,VWS V14.01,2013-04-29 18:51:00,
2013-04-29 14:56:00,52.2,47.5,30.16,ENE,59,5.0,15.0,84,0.01,,,0.02,VWS V14.01,2013-04-29 18:56:00,
2013-04-29 15:00:00,52.2,47.5,30.16,South,182,9.0,15.0,84,0.01,,,0.02,VWS V14.01,2013-04-29 19:00:00,
2013-04-29 15:01:00,52.2,47.5,30.16,ENE,78,8.0,11.0,84,0.01,,,0.02,VWS V14.01,2013-04-29 19:01:00,
2013-04-29 15:06:00,52.1,47.4,30.16,ENE,72,9.0,20.0,84,0.01,,,0.02,VWS V14.01,2013-04-29 19:06:00,
2013-04-29 15:11:00,51.9,47.2,30.16,SSE,151,6.0,20.0,84,0.01,,,0.02,VWS V14.01,2013-04-29 19:11:00,
2013-04-29 15:15:00,51.9,47.5,30.16,ENE,59,8.0,20.0,85,0.01,,,0.02,VWS V14.01,2013-04-29 19:15:00,
2013-04-29 15:16:00,52.1,47.7,30.16,NE,42,13.0,13.0,85,0.00,,,0.02,VWS V14.01,2013-04-29 19:16:00,
2013-04-29 15:21:00,51.9,47.5,30.16,ENE,62,9.0,13.0,85,0.00,,,0.02,VWS V14.01,2013-04-29 19:21:00,
2013-04-29 15:26:00,52.1,47.4,30.16,ESE,109,7.0,15.0,84,0.00,,,0.02,VWS V14.01,2013-04-29 19:26:00,
2013-04-29 15:30:00,51.9,47.2,30.16,ENE,57,0.0,15.0,84,0.00,,,0.02,VWS V14.01,2013-04-29 19:30:00,
2013-04-29 15:31:00,52.1,47.4,30.16,SW,229,0.0,6.0,84,0.00,,,0.02,VWS V14.01,2013-04-29 19:31:00,
2013-04-29 15:36:00,52.1,47.4,30.16,SSW,200,8.0,11.0,84,0.00,,,0.02,VWS V14.01,2013-04-29 19:36:00,
2013-04-29 15:41:00,51.9,47.2,30.16,East,86,10.0,16.0,84,0.00,,,0.02,VWS V14.01,2013-04-29 19:41:00,
2013-04-29 15:45:00,51.9,47.5,30.16,NE,34,6.0,16.0,85,0.00,,,0.02,VWS V14.01,2013-04-29 19:45:00,
2013-04-29 15:46:00,51.9,47.5,30.16,NE,46,7.0,15.0,85,0.00,,,0.02,VWS V14.01,2013-04-29 19:46:00,
2013-04-29 15:51:00,51.9,47.5,30.16,East,84,4.0,15.0,85,0.00,,,0.02,VWS V14.01,2013-04-29 19:51:00,
2013-04-29 15:56:00,51.8,47.4,30.16,NE,46,6.0,15.0,85,0.00,,,0.02,VWS V14.01,2013-04-29 19:56:00,
2013-04-29 16:00:00,51.8,47.4,30.15,East,90,0.0,15.0,85,0.00,,,0.02,VWS V14.01,2013-04-29 20:00:00,
2013-04-29 16:01:00,51.8,47.4,30.15,ENE,69,1.0,10.0,85,0.00,,,0.02,VWS V14.01,2013-04-29 20:01:00,
2013-04-29 16:06:00,51.8,47.8,30.15,NE,56,9.0,12.0,86,0.00,,,0.02,VWS V14.01,2013-04-29 20:06:00,
2013-04-29 16:11:00,51.8,47.8,30.15,NE,45,12.0,15.0,86,0.00,,,0.02,VWS V14.01,2013-04-29 20:11:00,
2013-04-29 16:15:00,51.8,47.8,30.15,NE,54,6.0,15.0,86,0.00,,,0.02,VWS V14.01,2013-04-29 20:15:00,
2013-04-29 16:16:00,51.8,47.8,30.15,East,90,7.0,18.0,86,0.00,,,0.02,VWS V14.01,2013-04-29 20:16:00,
2013-04-29 16:21:00,51.6,47.6,30.15,ENE,59,6.0,18.0,86,0.00,,,0.02,VWS V14.01,2013-04-29 20:21:00,
2013-04-29 16:26:00,51.6,47.6,30.15,East,90,2.0,18.0,86,0.00,,,0.02,VWS V14.01,2013-04-29 20:26:00,
2013-04-29 16:30:00,51.8,48.1,30.16,East,94,0.0,18.0,87,0.00,,,0.02,VWS V14.01,2013-04-29 20:30:00,
2013-04-29 16:31:00,51.8,48.1,30.16,NE,42,7.0,8.0,87,0.00,,,0.02,VWS V14.01,2013-04-29 20:31:00,
2013-04-29 16:36:00,51.6,47.9,30.16,NE,55,6.0,9.0,87,0.00,,,0.02,VWS V14.01,2013-04-29 20:36:00,
2013-04-29 16:41:00,51.6,47.9,30.16,SE,128,0.0,12.0,87,0.00,,,0.02,VWS V14.01,2013-04-29 20:41:00,
2013-04-29 16:45:00,51.6,47.9,30.16,NE,52,6.0,12.0,87,0.00,,,0.02,VWS V14.01,2013-04-29 20:45:00,
2013-04-29 16:46:00,51.6,47.9,30.16,NNE,32,5.0,11.0,87,0.00,,,0.02,VWS V14.01,2013-04-29 20:46:00,
2013-04-29 16:51:00,51.5,47.8,30.16,East,93,0.0,13.0,87,0.00,,,0.02,VWS V14.01,2013-04-29 20:51:00,
2013-04-29 16:56:00,51.5,47.8,30.16,ENE,74,6.0,13.0,87,0.00,,,0.02,VWS V14.01,2013-04-29 20:56:00,
2013-04-29 17:00:00,51.6,48.2,30.16,NE,51,6.0,13.0,88,0.00,,,0.02,VWS V14.01,2013-04-29 21:00:00,
2013-04-29 17:01:00,51.6,48.2,30.16,East,98,5.0,6.0,88,0.00,,,0.02,VWS V14.01,2013-04-29 21:01:00,
2013-04-29 17:06:00,51.6,48.2,30.16,East,101,0.0,6.0,88,0.00,,,0.02,VWS V14.01,2013-04-29 21:06:00,
2013-04-29 17:11:00,51.6,48.2,30.16,NE,54,4.0,7.0,88,0.00,,,0.02,VWS V14.01,2013-04-29 21:11:00,
2013-04-29 17:15:00,51.6,48.2,30.16,East,79,0.0,11.0,88,0.01,,,0.03,VWS V14.01,2013-04-29 21:15:00,
2013-04-29 17:16:00,51.6,48.2,30.16,ESE,105,3.0,9.0,88,0.01,,,0.03,VWS V14.01,2013-04-29 21:16:00,
2013-04-29 17:21:00,51.6,48.2,30.16,East,92,0.0,9.0,88,0.01,,,0.03,VWS V14.01,2013-04-29 21:21:00,
2013-04-29 17:26:00,51.6,48.2,30.16,ENE,74,0.0,9.0,88,0.01,,,0.03,VWS V14.01,2013-04-29 21:26:00,
2013-04-29 17:30:00,51.6,48.2,30.16,ESE,103,4.0,9.0,88,0.01,,,0.03,VWS V14.01,2013-04-29 21:30:00,
2013-04-29 17:31:00,51.6,48.2,30.16,South,177,0.0,9.0,88,0.01,,,0.03,VWS V14.01,2013-04-29 21:31:00,
2013-04-29 17:36:00,51.6,48.2,30.16,East,79,7.0,9.0,88,0.01,,,0.03,VWS V14.01,2013-04-29 21:36:00,
2013-04-29 17:41:00,51.6,48.2,30.16,East,86,0.0,9.0,88,0.01,,,0.03,VWS V14.01,2013-04-29 21:41:00,
2013-04-29 17:45:00,51.6,48.2,30.16,ENE,57,6.0,10.0,88,0.01,,,0.03,VWS V14.01,2013-04-29 21:45:00,
2013-04-29 17:46:00,51.6,48.2,30.16,East,89,8.0,9.0,88,0.01,,,0.03,VWS V14.01,2013-04-29 21:46:00,
2013-04-29 17:51:00,51.8,48.4,30.16,NE,47,6.0,11.0,88,0.01,,,0.03,VWS V14.01,2013-04-29 21:51:00,
2013-04-29 17:56:00,51.8,48.4,30.16,ENE,74,0.0,11.0,88,0.01,,,0.03,VWS V14.01,2013-04-29 21:56:00,
2013-04-29 18:00:00,51.8,48.4,30.16,ENE,57,2.0,11.0,88,0.01,,,0.03,VWS V14.01,2013-04-29 22:00:00,
2013-04-29 18:01:00,51.8,48.4,30.16,ENE,66,5.0,6.0,88,0.01,,,0.03,VWS V14.01,2013-04-29 22:01:00,
2013-04-29 18:06:00,51.8,48.4,30.16,ENE,71,5.0,8.0,88,0.01,,,0.03,VWS V14.01,2013-04-29 22:06:00,
2013-04-29 18:11:00,51.8,48.4,30.16,ENE,68,6.0,11.0,88,0.01,,,0.03,VWS V14.01,2013-04-29 22:11:00,
2013-04-29 18:15:00,51.8,48.4,30.16,NE,51,3.0,11.0,88,0.01,,,0.03,VWS V14.01,2013-04-29 22:15:00,
2013-04-29 18:16:00,51.9,48.5,30.16,NE,46,4.0,8.0,88,0.00,,,0.03,VWS V14.01,2013-04-29 22:16:00,
2013-04-29 18:21:00,51.8,48.4,30.16,NE,40,0.0,8.0,88,0.00,,,0.03,VWS V14.01,2013-04-29 22:21:00,
2013-04-29 18:26:00,51.8,48.4,30.16,East,88,5.0,10.0,88,0.00,,,0.03,VWS V14.01,2013-04-29 22:26:00,
2013-04-29 18:30:00,51.8,48.4,30.16,ENE,58,5.0,10.0,88,0.00,,,0.03,VWS V14.01,2013-04-29 22:30:00,
2013-04-29 18:31:00,51.8,48.4,30.16,East,89,5.0,8.0,88,0.00,,,0.03,VWS V14.01,2013-04-29 22:31:00,
2013-04-29 18:36:00,51.8,48.4,30.16,NNE,33,6.0,8.0,88,0.00,,,0.03,VWS V14.01,2013-04-29 22:36:00,
2013-04-29 18:41:00,51.8,48.4,30.16,NE,54,6.0,10.0,88,0.00,,,0.03,VWS V14.01,2013-04-29 22:41:00,
2013-04-29 18:45:00,51.8,48.4,30.16,East,92,6.0,10.0,88,0.00,,,0.03,VWS V14.01,2013-04-29 22:45:00,
2013-04-29 18:46:00,51.8,48.4,30.16,NE,38,6.0,9.0,88,0.00,,,0.03,VWS V14.01,2013-04-29 22:46:00,
2013-04-29 18:51:00,51.8,48.4,30.16,ENE,61,6.0,10.0,88,0.00,,,0.03,VWS V14.01,2013-04-29 22:51:00,
2013-04-29 18:56:00,51.8,48.4,30.16,East,89,5.0,10.0,88,0.00,,,0.03,VWS V14.01,2013-04-29 22:56:00,
2013-04-29 19:00:00,51.8,48.4,30.16,ENE,74,4.0,10.0,88,0.00,,,0.03,VWS V14.01,2013-04-29 23:00:00,
2013-04-29 19:01:00,51.8,48.4,30.16,East,81,1.0,11.0,88,0.00,,,0.03,VWS V14.01,2013-04-29 23:01:00,
2013-04-29 19:10:00,51.9,48.5,30.16,NE,48,8.0,8.0,88,0.00,,,0.03,VWS V14.01,2013-04-29 23:10:00,
2013-04-29 19:15:00,51.9,48.2,30.16,NE,45,6.0,15.0,87,0.00,,,0.03,VWS V14.01,2013-04-29 23:15:00,
2013-04-29 19:18:00,52.1,48.4,30.16,NE,38,7.0,7.0,87,0.00,,,0.03,VWS V14.01,2013-04-29 23:18:00,
2013-04-29 19:23:00,52.1,48.4,30.16,NE,39,8.0,11.0,87,0.00,,,0.03,VWS V14.01,2013-04-29 23:23:00,
2013-04-29 19:28:00,52.1,48.4,30.16,ENE,74,5.0,11.0,87,0.00,,,0.03,VWS V14.01,2013-04-29 23:28:00,
2013-04-29 19:30:00,52.2,48.5,30.16,ENE,58,2.0,11.0,87,0.00,,,0.03,VWS V14.01,2013-04-29 23:30:00,
2013-04-29 19:33:00,52.2,48.5,30.16,NE,50,7.0,10.0,87,0.00,,,0.03,VWS V14.01,2013-04-29 23:33:00,
2013-04-29 19:38:00,52.2,48.5,30.16,East,88,5.0,11.0,87,0.00,,,0.03,VWS V14.01,2013-04-29 23:38:00,
2013-04-29 19:43:00,52.1,48.7,30.16,NE,48,6.0,11.0,88,0.00,,,0.03,VWS V14.01,2013-04-29 23:43:00,
2013-04-29 19:45:00,52.1,48.4,30.17,NE,46,10.0,11.0,87,0.00,,,0.03,VWS V14.01,2013-04-29 23:45:00,
2013-04-29 19:48:00,52.1,48.7,30.17,ENE,72,2.0,10.0,88,0.00,,,0.03,VWS V14.01,2013-04-29 23:48:00,
2013-04-29 19:53:00,52.1,48.7,30.17,NE,50,5.0,10.0,88,0.00,,,0.03,VWS V14.01,2013-04-29 23:53:00,
2013-04-29 19:58:00,51.9,48.5,30.17,NE,53,4.0,10.0,88,0.00,,,0.03,VWS V14.01,2013-04-29 23:58:00,
2013-04-29 20:00:00,51.9,48.5,30.17,NE,52,4.0,10.0,88,0.00,,,0.03,VWS V14.01,2013-04-30 00:00:00,
2013-04-29 20:03:00,51.9,48.5,30.17,NE,46,5.0,9.0,88,0.00,,,0.03,VWS V14.01,2013-04-30 00:03:00,
2013-04-29 20:13:00,51.8,48.4,30.17,NNE,30,10.0,10.0,88,0.00,,,0.03,VWS V14.01,2013-04-30 00:13:00,
2013-04-29 20:15:00,51.6,48.2,30.17,NE,55,6.0,10.0,88,0.00,,,0.03,VWS V14.01,2013-04-30 00:15:00,
2013-04-29 20:18:00,51.6,48.2,30.17,NE,50,4.0,8.0,88,0.00,,,0.03,VWS V14.01,2013-04-30 00:18:00,
2013-04-29 20:23:00,51.6,48.2,30.17,NE,50,8.0,10.0,88,0.00,,,0.03,VWS V14.01,2013-04-30 00:23:00,
2013-04-29 20:28:00,51.6,48.2,30.18,NE,53,5.0,10.0,88,0.00,,,0.03,VWS V14.01,2013-04-30 00:28:00,
2013-04-29 20:30:00,51.6,48.2,30.18,NNE,28,6.0,10.0,88,0.00,,,0.03,VWS V14.01,2013-04-30 00:30:00,
2013-04-29 20:33:00,51.6,48.2,30.18,NE,53,5.0,10.0,88,0.00,,,0.03,VWS V14.01,2013-04-30 00:33:00,
2013-04-29 20:38:00,51.6,48.2,30.18,NE,51,6.0,10.0,88,0.00,,,0.03,VWS V14.01,2013-04-30 00:38:00,
2013-04-29 20:43:00,51.6,48.2,30.18,NNE,33,6.0,10.0,88,0.00,,,0.03,VWS V14.01,2013-04-30 00:43:00,
2013-04-29 20:45:00,51.6,48.2,30.18,NE,34,6.0,10.0,88,0.00,,,0.03,VWS V14.01,2013-04-30 00:45:00,
2013-04-29 20:48:00,51.6,48.2,30.18,NE,49,6.0,6.0,88,0.00,,,0.03,VWS V14.01,2013-04-30 00:48:00,
2013-04-29 20:53:00,51.6,48.2,30.18,NE,34,0.0,7.0,88,0.00,,,0.03,VWS V14.01,2013-04-30 00:53:00,
2013-04-29 20:58:00,51.5,48.4,30.18,NE,50,7.0,11.0,89,0.00,,,0.03,VWS V14.01,2013-04-30 00:58:00,
2013-04-29 21:00:00,51.5,48.4,30.18,NE,34,9.0,11.0,89,0.00,,,0.03,VWS V14.01,2013-04-30 01:00:00,
2013-04-29 21:03:00,51.5,48.4,30.18,NE,42,4.0,9.0,89,0.00,,,0.03,VWS V14.01,2013-04-30 01:03:00,
2013-04-29 21:08:00,51.6,48.5,30.18,ENE,61,6.0,9.0,89,0.00,,,0.03,VWS V14.01,2013-04-30 01:08:00,
2013-04-29 21:13:00,51.6,48.5,30.19,NE,45,3.0,9.0,89,0.00,,,0.03,VWS V14.01,2013-04-30 01:13:00,
2013-04-29 21:15:00,51.6,48.5,30.19,NE,39,7.0,9.0,89,0.00,,,0.03,VWS V14.01,2013-04-30 01:15:00,
2013-04-29 21:18:00,51.6,48.5,30.19,NE,40,0.0,7.0,89,0.00,,,0.03,VWS V14.01,2013-04-30 01:18:00,
2013-04-29 21:23:00,51.6,48.5,30.19,NE,47,2.0,7.0,89,0.00,,,0.03,VWS V14.01,2013-04-30 01:23:00,
2013-04-29 21:28:00,51.6,48.8,30.20,NE,42,3.0,7.0,90,0.00,,,0.03,VWS V14.01,2013-04-30 01:28:00,
2013-04-29 21:30:00,51.6,48.8,30.20,NE,54,4.0,7.0,90,0.00,,,0.03,VWS V14.01,2013-04-30 01:30:00,
2013-04-29 21:33:00,51.8,49.0,30.20,NNE,30,2.0,6.0,90,0.00,,,0.03,VWS V14.01,2013-04-30 01:33:00,
2013-04-29 21:38:00,51.8,49.0,30.20,NNE,31,4.0,7.0,90,0.00,,,0.03,VWS V14.01,2013-04-30 01:38:00,
2013-04-29 21:43:00,51.8,49.0,30.20,NE,38,6.0,7.0,90,0.00,,,0.03,VWS V14.01,2013-04-30 01:43:00,
2013-04-29 21:45:00,51.8,49.0,30.20,NE,40,4.0,8.0,90,0.00,,,0.03,VWS V14.01,2013-04-30 01:45:00,
2013-04-29 21:48:00,51.8,49.0,30.20,NE,49,6.0,9.0,90,0.00,,,0.03,VWS V14.01,2013-04-30 01:48:00,
2013-04-29 21:53:00,51.8,49.0,30.20,ENE,61,4.0,9.0,90,0.00,,,0.03,VWS V14.01,2013-04-30 01:53:00,
2013-04-29 21:58:00,51.8,49.0,30.20,ENE,65,2.0,9.0,90,0.00,,,0.03,VWS V14.01,2013-04-30 01:58:00,
2013-04-29 22:00:00,51.8,49.0,30.20,ENE,65,0.0,9.0,90,0.00,,,0.03,VWS V14.01,2013-04-30 02:00:00,
2013-04-29 22:03:00,51.8,49.0,30.20,NE,46,4.0,8.0,90,0.00,,,0.03,VWS V14.01,2013-04-30 02:03:00,
2013-04-29 22:08:00,51.8,49.0,30.20,North,360,4.0,8.0,90,0.00,,,0.03,VWS V14.01,2013-04-30 02:08:00,
2013-04-29 22:13:00,51.8,49.0,30.20,ENE,63,3.0,8.0,90,0.00,,,0.03,VWS V14.01,2013-04-30 02:13:00,
2013-04-29 22:15:00,51.8,49.0,30.20,NE,50,7.0,8.0,90,0.00,,,0.03,VWS V14.01,2013-04-30 02:15:00,
2013-04-29 22:18:00,51.8,49.0,30.20,NE,56,4.0,8.0,90,0.00,,,0.03,VWS V14.01,2013-04-30 02:18:00,
2013-04-29 22:23:00,51.8,49.0,30.20,NE,55,7.0,8.0,90,0.00,,,0.03,VWS V14.01,2013-04-30 02:23:00,
2013-04-29 22:28:00,51.8,48.7,30.20,NE,51,3.0,9.0,89,0.00,,,0.03,VWS V14.01,2013-04-30 02:28:00,
2013-04-29 22:30:00,51.8,49.0,30.20,NE,51,6.0,9.0,90,0.00,,,0.03,VWS V14.01,2013-04-30 02:30:00,
2013-04-29 22:33:00,51.8,48.7,30.20,SE,130,0.0,10.0,89,0.00,,,0.03,VWS V14.01,2013-04-30 02:33:00,
2013-04-29 22:38:00,51.8,48.7,30.20,NE,46,5.0,10.0,89,0.00,,,0.03,VWS V14.01,2013-04-30 02:38:00,
2013-04-29 22:43:00,51.8,49.0,30.20,ENE,62,4.0,10.0,90,0.00,,,0.03,VWS V14.01,2013-04-30 02:43:00,
2013-04-29 22:45:00,51.8,49.0,30.20,ENE,74,3.0,10.0,90,0.00,,,0.03,VWS V14.01,2013-04-30 02:45:00,
2013-04-29 22:48:00,51.8,49.0,30.20,NE,36,3.0,6.0,90,0.00,,,0.03,VWS V14.01,2013-04-30 02:48:00,
2013-04-29 22:53:00,51.8,49.0,30.20,NE,50,5.0,6.0,90,0.00,,,0.03,VWS V14.01,2013-04-30 02:53:00,
2013-04-29 22:58:00,51.8,49.0,30.20,ENE,71,2.0,6.0,90,0.00,,,0.03,VWS V14.01,2013-04-30 02:58:00,
2013-04-29 23:00:00,51.8,49.0,30.21,North,5,0.0,6.0,90,0.00,,,0.03,VWS V14.01,2013-04-30 03:00:00,
2013-04-29 23:03:00,51.8,49.0,30.21,SE,124,2.0,8.0,90,0.00,,,0.03,VWS V14.01,2013-04-30 03:03:00,
2013-04-29 23:08:00,51.8,48.7,30.21,ENE,60,5.0,8.0,89,0.00,,,0.03,VWS V14.01,2013-04-30 03:08:00,
2013-04-29 23:13:00,51.8,48.7,30.21,ENE,60,2.0,8.0,89,0.00,,,0.03,VWS V14.01,2013-04-30 03:13:00,
2013-04-29 23:15:00,51.8,48.7,30.21,NE,42,5.0,8.0,89,0.00,,,0.03,VWS V14.01,2013-04-30 03:15:00,
2013-04-29 23:18:00,51.8,48.7,30.21,ESE,109,0.0,6.0,89,0.00,,,0.03,VWS V14.01,2013-04-30 03:18:00,
2013-04-29 23:23:00,51.6,48.5,30.21,ENE,65,0.0,6.0,89,0.00,,,0.03,VWS V14.01,2013-04-30 03:23:00,
2013-04-29 23:28:00,51.6,48.5,30.21,East,92,5.0,7.0,89,0.00,,,0.03,VWS V14.01,2013-04-30 03:28:00,
2013-04-29 23:30:00,51.6,48.5,30.21,ENE,76,2.0,7.0,89,0.00,,,0.03,VWS V14.01,2013-04-30 03:30:00,
2013-04-29 23:33:00,51.5,48.4,30.21,ENE,67,0.0,7.0,89,0.00,,,0.03,VWS V14.01,2013-04-30 03:33:00,
2013-04-29 23:38:00,51.5,48.4,30.21,NE,53,0.0,8.0,89,0.00,,,0.03,VWS V14.01,2013-04-30 03:38:00,
2013-04-29 23:43:00,51.3,48.2,30.20,ENE,67,2.0,9.0,89,0.00,,,0.03,VWS V14.01,2013-04-30 03:43:00,
2013-04-29 23:45:00,51.3,48.2,30.20,ENE,67,0.0,9.0,89,0.00,,,0.03,VWS V14.01,2013-04-30 03:45:00,
2013-04-29 23:48:00,51.3,48.2,30.20,East,86,0.0,9.0,89,0.00,,,0.03,VWS V14.01,2013-04-30 03:48:00,